QPF
0.01 0.00 0.01 0.02 0.03 0.03 0.03 0.02 0.01 0.01 0.01 0.02 0.02 0.02 0.02 0.02 0.02 0.03 0.02 0.03 0.03 0.04 0.04 0.04 0.02 0.02 0.02 0.01 0.01 0.01 0.01 0.01 0.01 0.01 0.01 0.01 0.01 0.01 0.01 0.02 0.02 0.02 0.02
0.00 0.01 0.01 0.02 0.04 0.04 0.02 0.02 0.01 0.01 0.02 0.03 0.03 0.02 0.02 0.02 0.03 0.03 0.04 0.05 0.04 0.04 0.04 0.05 0.03 0.02 0.02 0.01 0.01 0.01 0.01 0.01 0.01 0.01 0.01 0.01 0.01 0.02 0.01 0.02 0.02 0.03 0.03
0.01 0.01 0.01 0.02 0.03 0.03 0.03 0.02 0.02 0.02 0.02 0.03 0.02 0.02 0.02 0.02 0.02 0.02 0.05 0.06 0.06 0.05 0.05 0.05 0.03 0.02 0.02 0.02 0.01 0.01 0.01 0.01 0.01 0.01 0.01 0.02 0.02 0.03 0.03 0.02 0.02 0.03 0.04
0.01 0.01 0.01 0.01 0.03 0.03 0.04 0.04 0.03 0.02 0.02 0.02 0.02 0.02 0.01 0.02 0.03 0.03 0.04 0.04 0.06 0.07 0.07 0.06 0.03 0.03 0.03 0.03 0.02 0.01 0.01 0.01 0.01 0.01 0.02 0.02 0.03 0.04 0.04 0.03 0.03 0.02 0.03
0.00 0.01 0.01 0.02 0.03 0.03 0.03 0.04 0.05 0.04 0.02 0.02 0.02 0.02 0.01 0.02 0.03 0.03 0.03 0.04 0.05 0.07 0.08 0.07 0.05 0.03 0.02 0.02 0.02 0.01 0.01 0.01 0.01 0.01 0.01 0.01 0.04 0.06 0.04 0.03 0.03 0.02 0.02
0.00 0.01 0.02 0.02 0.03 0.03 0.04 0.06 0.05 0.04 0.04 0.02 0.02 0.02 0.02 0.02 0.03 0.04 0.03 0.04 0.06 0.07 0.06 0.06 0.06 0.05 0.03 0.02 0.02 0.01 0.01 0.01 0.01 0.01 0.01 0.01 0.05 0.07 0.05 0.04 0.02 0.02 0.02
0.01 0.02 0.02 0.01 0.02 0.03 0.02 0.03 0.04 0.04 0.05 0.06 0.04 0.04 0.03 0.04 0.04 0.04 0.04 0.04 0.06 0.06 0.06 0.05 0.05 0.05 0.04 0.03 0.02 0.02 0.01 0.01 0.01 0.01 0.01 0.02 0.07 0.08 0.06 0.04 0.02 0.01 0.01
0.02 0.02 0.02 0.02 0.02 0.03 0.03 0.02 0.03 0.04 0.04 0.05 0.05 0.04 0.03 0.02 0.03 0.02 0.03 0.04 0.05 0.06 0.07 0.06 0.05 0.05 0.04 0.03 0.02 0.02 0.01 0.01 0.00 0.01 0.01 0.03 0.07 0.08 0.05 0.03 0.01 0.01 0.01
0.01 0.02 0.02 0.03 0.03 0.03 0.02 0.02 0.03 0.04 0.04 0.05 0.05 0.04 0.03 0.02 0.02 0.02 0.03 0.05 0.06 0.06 0.07 0.08 0.07 0.05 0.05 0.04 0.03 0.02 0.02 0.01 0.01 0.01 0.01 0.05 0.06 0.05 0.04 0.03 0.02 0.01 0.01
0.02 0.02 0.02 0.02 0.03 0.03 0.03 0.02 0.01 0.02 0.04 0.04 0.04 0.04 0.02 0.02 0.02 0.02 0.02 0.06 0.06 0.05 0.05 0.05 0.07 0.08 0.06 0.05 0.04 0.03 0.02 0.02 0.01 0.01 0.01 0.02 0.02 0.03 0.03 0.02 0.02 0.02 0.02
0.03 0.02 0.02 0.02 0.02 0.03 0.03 0.03 0.02 0.02 0.03 0.04 0.04 0.05 0.03 0.04 0.04 0.03 0.02 0.07 0.09 0.06 0.04 0.03 0.04 0.05 0.06 0.06 0.05 0.04 0.03 0.02 0.01 0.01 0.02 0.01 0.02 0.03 0.04 0.03 0.01 0.01 0.02
0.03 0.02 0.02 0.02 0.02 0.02 0.02 0.04 0.04 0.03 0.03 0.04 0.05 0.07 0.06 0.05 0.04 0.03 0.04 0.10 0.11 0.06 0.04 0.03 0.03 0.04 0.04 0.03 0.03 0.04 0.03 0.03 0.02 0.01 0.01 0.01 0.01 0.03 0.04 0.02 0.02 0.02 0.02
0.03 0.03 0.03 0.02 0.02 0.02 0.03 0.03 0.04 0.03 0.04 0.04 0.04 0.06 0.06 0.06 0.06 0.04 0.04 0.07 0.06 0.04 0.03 0.02 0.02 0.03 0.04 0.03 0.02 0.02 0.02 0.02 0.03 0.03 0.02 0.02 0.02 0.05 0.05 0.03 0.02 0.03 0.02
0.03 0.04 0.04 0.03 0.02 0.02 0.01 0.03 0.02 0.02 0.02 0.03 0.04 0.05 0.05 0.05 0.05 0.05 0.06 0.07 0.06 0.05 0.04 0.02 0.02 0.02 0.03 0.04 0.05 0.04 0.04 0.05 0.05 0.04 0.03 0.03 0.03 0.05 0.07 0.05 0.04 0.04 0.04
0.03 0.03 0.04 0.04 0.03 0.02 0.02 0.02 0.03 0.02 0.01 0.02 0.04 0.04 0.03 0.03 0.03 0.03 0.04 0.06 0.05 0.04 0.04 0.03 0.02 0.02 0.02 0.04 0.05 0.05 0.05 0.05 0.05 0.04 0.04 0.04 0.03 0.03 0.05 0.06 0.06 0.05 0.04
0.05 0.04 0.04 0.04 0.03 0.03 0.02 0.01 0.03 0.02 0.02 0.02 0.04 0.03 0.03 0.03 0.02 0.02 0.02 0.02 0.02 0.03 0.03 0.04 0.03 0.02 0.02 0.02 0.03 0.04 0.04 0.04 0.05 0.06 0.06 0.06 0.04 0.04 0.04 0.05 0.04 0.04 0.04
0.07 0.05 0.05 0.04 0.04 0.04 0.03 0.02 0.03 0.04 0.03 0.03 0.04 0.04 0.04 0.04 0.03 0.02 0.01 0.01 0.02 0.02 0.02 0.02 0.03 0.03 0.02 0.02 0.02 0.03 0.04 0.04 0.03 0.04 0.05 0.04 0.04 0.04 0.05 0.04 0.04 0.03 0.04
0.10 0.07 0.06 0.04 0.04 0.04 0.04 0.04 0.04 0.04 0.05 0.05 0.05 0.05 0.05 0.05 0.03 0.02 0.02 0.02 0.02 0.01 0.01 0.01 0.01 0.01 0.01 0.01 0.02 0.02 0.02 0.03 0.03 0.03 0.04 0.04 0.03 0.03 0.03 0.03 0.03 0.02 0.03
0.11 0.11 0.07 0.04 0.04 0.04 0.04 0.04 0.05 0.05 0.05 0.05 0.07 0.06 0.05 0.04 0.02 0.02 0.01 0.01 0.02 0.02 0.01 0.01 0.01 0.01 0.01 0.01 0.01 0.01 0.01 0.02 0.03 0.03 0.04 0.04 0.03 0.02 0.02 0.03 0.03 0.02 0.02
0.08 0.11 0.09 0.04 0.03 0.03 0.04 0.05 0.06 0.05 0.06 0.06 0.08 0.08 0.05 0.03 0.02 0.01 0.01 0.01 0.01 0.02 0.02 0.02 0.02 0.01 0.01 0.01 0.01 0.01 0.02 0.02 0.02 0.03 0.03 0.03 0.02 0.02 0.02 0.02 0.02 0.02 0.02
0.06 0.08 0.09 0.07 0.03 0.02 0.03 0.05 0.06 0.06 0.06 0.07 0.08 0.08 0.07 0.03 0.02 0.01 0.01 0.01 0.01 0.01 0.01 0.02 0.02 0.02 0.02 0.02 0.02 0.02 0.02 0.02 0.02 0.02 0.02 0.02 0.02 0.02 0.02 0.02 0.02 0.02 0.02
0.04 0.06 0.07 0.08 0.06 0.02 0.03 0.04 0.05 0.07 0.08 0.08 0.09 0.09 0.08 0.04 0.01 0.01 0.01 0.01 0.01 0.01 0.01 0.01 0.01 0.02 0.02 0.02 0.02 0.02 0.02 0.02 0.03 0.02 0.02 0.02 0.02 0.03 0.03 0.03 0.02 0.02 0.02
0.02 0.03 0.04 0.06 0.06 0.04 0.03 0.03 0.05 0.07 0.09 0.10 0.10 0.10 0.08 0.04 0.02 0.01 0.01 0.01 0.01 0.01 0.01 0.01 0.01 0.01 0.02 0.02 0.02 0.03 0.03 0.03 0.02 0.02 0.02 0.02 0.02 0.02 0.03 0.03 0.02 0.02 0.01
0.02 0.02 0.02 0.03 0.05 0.05 0.05 0.04 0.04 0.06 0.08 0.09 0.09 0.09 0.08 0.06 0.03 0.02 0.01 0.01 0.01 0.01 0.01 0.01 0.02 0.02 0.02 0.02 0.02 0.02 0.03 0.03 0.03 0.02 0.02 0.02 0.02 0.03 0.03 0.03 0.02 0.02 0.01
0.02 0.03 0.03 0.03 0.04 0.05 0.05 0.06 0.05 0.06 0.06 0.07 0.07 0.07 0.07 0.07 0.07 0.04 0.02 0.02 0.02 0.01 0.01 0.01 0.01 0.02 0.02 0.03 0.02 0.02 0.03 0.03 0.03 0.03 0.02 0.02 0.02 0.02 0.02 0.02 0.02 0.01 0.01
0.01 0.02 0.02 0.03 0.04 0.05 0.05 0.06 0.06 0.07 0.06 0.06 0.06 0.06 0.06 0.07 0.08 0.05 0.03 0.03 0.02 0.02 0.02 0.01 0.01 0.01 0.01 0.01 0.02 0.02 0.02 0.02 0.02 0.02 0.02 0.02 0.02 0.02 0.02 0.02 0.02 0.02 0.01
MSLP
1012.33 1012.48 1012.72 1013.04 1013.42 1013.85 1014.26 1014.64 1014.95 1015.19 1015.38 1015.53 1015.67 1015.82 1015.99 1016.15 1016.30 1016.41 1016.47 1016.47 1016.44 1016.38 1016.34 1016.33 1016.37 1016.45 1016.57 1016.68 1016.78 1016.83 1016.84 1016.79 1016.71 1016.62 1016.53 1016.44 1016.37 1016.30 1016.22 1016.12 1016.00 1015.87 1015.73
1011.96 1012.16 1012.47 1012.88 1013.36 1013.85 1014.32 1014.72 1015.03 1015.26 1015.43 1015.58 1015.73 1015.91 1016.12 1016.33 1016.52 1016.67 1016.75 1016.76 1016.73 1016.67 1016.62 1016.62 1016.67 1016.77 1016.91 1017.05 1017.17 1017.23 1017.25 1017.21 1017.13 1017.04 1016.95 1016.87 1016.81 1016.75 1016.69 1016.61 1016.51 1016.39 1016.26
1011.60 1011.85 1012.22 1012.70 1013.25 1013.80 1014.30 1014.72 1015.03 1015.26 1015.43 1015.58 1015.75 1015.97 1016.21 1016.47 1016.71 1016.89 1017.00 1017.03 1017.00 1016.94 1016.90 1016.90 1016.96 1017.07 1017.22 1017.38 1017.50 1017.58 1017.60 1017.57 1017.51 1017.43 1017.35 1017.29 1017.25 1017.21 1017.17 1017.10 1017.02 1016.92 1016.80
1011.30 1011.59 1012.01 1012.55 1013.14 1013.73 1014.25 1014.67 1014.99 1015.21 1015.38 1015.54 1015.73 1015.98 1016.26 1016.56 1016.84 1017.07 1017.21 1017.27 1017.26 1017.23 1017.20 1017.21 1017.27 1017.39 1017.54 1017.69 1017.82 1017.90 1017.93 1017.91 1017.86 1017.79 1017.74 1017.70 1017.67 1017.65 1017.63 1017.58 1017.52 1017.44 1017.34
1011.11 1011.44 1011.90 1012.47 1013.08 1013.68 1014.20 1014.62 1014.92 1015.14 1015.31 1015.48 1015.69 1015.96 1016.27 1016.61 1016.94 1017.21 1017.39 1017.50 1017.54 1017.54 1017.54 1017.57 1017.64 1017.76 1017.90 1018.04 1018.16 1018.24 1018.26 1018.25 1018.21 1018.16 1018.11 1018.08 1018.07 1018.06 1018.05 1018.02 1017.97 1017.91 1017.84
1011.06 1011.42 1011.91 1012.48 1013.09 1013.68 1014.18 1014.58 1014.87 1015.08 1015.25 1015.43 1015.65 1015.94 1016.28 1016.65 1017.01 1017.33 1017.57 1017.74 1017.84 1017.89 1017.94 1018.00 1018.09 1018.20 1018.33 1018.46 1018.56 1018.61 1018.63 1018.61 1018.57 1018.52 1018.48 1018.46 1018.44 1018.43 1018.41 1018.38 1018.34 1018.30 1018.25
1011.13 1011.51 1012.01 1012.57 1013.16 1013.72 1014.20 1014.58 1014.85 1015.06 1015.23 1015.42 1015.66 1015.96 1016.31 1016.71 1017.10 1017.46 1017.76 1018.00 1018.17 1018.29 1018.39 1018.49 1018.60 1018.72 1018.83 1018.93 1019.01 1019.04 1019.04 1019.01 1018.97 1018.91 1018.86 1018.82 1018.78 1018.74 1018.70 1018.66 1018.63 1018.59 1018.57
1011.27 1011.66 1012.14 1012.68 1013.23 1013.75 1014.21 1014.57 1014.85 1015.07 1015.26 1015.47 1015.72 1016.04 1016.41 1016.82 1017.24 1017.63 1017.98 1018.27 1018.51 1018.70 1018.86 1019.01 1019.14 1019.26 1019.37 1019.45 1019.50 1019.52 1019.50 1019.46 1019.40 1019.33 1019.26 1019.18 1019.10 1019.02 1018.95 1018.88 1018.83 1018.80 1018.79
1011.41 1011.78 1012.23 1012.73 1013.24 1013.72 1014.16 1014.52 1014.82 1015.07 1015.31 1015.56 1015.85 1016.18 1016.57 1016.99 1017.42 1017.83 1018.21 1018.55 1018.84 1019.09 1019.30 1019.48 1019.64 1019.77 1019.88 1019.96 1020.00 1020.02 1020.00 1019.96 1019.89 1019.80 1019.69 1019.57 1019.44 1019.30 1019.17 1019.06 1018.98 1018.94 1018.95
1011.48 1011.82 1012.21 1012.65 1013.12 1013.57 1013.99 1014.38 1014.72 1015.03 1015.34 1015.65 1015.99 1016.37 1016.78 1017.20 1017.63 1018.05 1018.44 1018.79 1019.11 1019.40 1019.64 1019.86 1020.05 1020.20 1020.33 1020.43 1020.49 1020.52 1020.53 1020.50 1020.43 1020.33 1020.19 1020.02 1019.82 1019.61 1019.42 1019.25 1019.14 1019.09 1019.10
1011.44 1011.71 1012.05 1012.43 1012.84 1013.26 1013.69 1014.10 1014.51 1014.90 1015.30 1015.70 1016.12 1016.54 1016.98 1017.41 1017.84 1018.24 1018.63 1018.98 1019.31 1019.61 1019.88 1020.12 1020.34 1020.53 1020.69 1020.84 1020.95 1021.03 1021.09 1021.09 1021.05 1020.94 1020.77 1020.55 1020.29 1020.01 1019.75 1019.52 1019.37 1019.29 1019.29
1011.26 1011.48 1011.75 1012.06 1012.43 1012.82 1013.25 1013.70 1014.17 1014.66 1015.16 1015.66 1016.16 1016.65 1017.12 1017.57 1018.00 1018.39 1018.75 1019.10 1019.42 1019.72 1020.00 1020.27 1020.52 1020.76 1020.99 1021.21 1021.40 1021.57 1021.69 1021.76 1021.75 1021.66 1021.47 1021.21 1020.89 1020.54 1020.21 1019.92 1019.72 1019.61 1019.60
1010.98 1011.14 1011.36 1011.62 1011.94 1012.31 1012.74 1013.22 1013.75 1014.32 1014.91 1015.51 1016.10 1016.66 1017.17 1017.65 1018.07 1018.46 1018.81 1019.14 1019.45 1019.75 1020.05 1020.35 1020.65 1020.96 1021.27 1021.58 1021.88 1022.15 1022.38 1022.52 1022.57 1022.50 1022.31 1022.02 1021.64 1021.23 1020.83 1020.49 1020.24 1020.10 1020.06
1010.63 1010.78 1010.95 1011.18 1011.46 1011.80 1012.22 1012.72 1013.29 1013.92 1014.59 1015.26 1015.92 1016.54 1017.10 1017.61 1018.05 1018.45 1018.80 1019.13 1019.45 1019.77 1020.09 1020.43 1020.80 1021.18 1021.59 1022.02 1022.44 1022.83 1023.16 1023.39 1023.51 1023.47 1023.28 1022.97 1022.55 1022.09 1021.64 1021.24 1020.95 1020.77 1020.70
1010.28 1010.43 1010.61 1010.81 1011.07 1011.40 1011.80 1012.30 1012.88 1013.53 1014.23 1014.95 1015.65 1016.32 1016.92 1017.46 1017.94 1018.36 1018.74 1019.10 1019.44 1019.80 1020.17 1020.57 1021.00 1021.48 1022.00 1022.54 1023.08 1023.59 1024.03 1024.36 1024.54 1024.55 1024.38 1024.05 1023.62 1023.12 1022.62 1022.18 1021.85 1021.63 1021.52
1009.96 1010.15 1010.36 1010.58 1010.84 1011.15 1011.54 1012.02 1012.58 1013.22 1013.91 1014.63 1015.35 1016.03 1016.67 1017.24 1017.76 1018.23 1018.65 1019.06 1019.47 1019.88 1020.32 1020.79 1021.31 1021.88 1022.49 1023.14 1023.79 1024.41 1024.96 1025.38 1025.63 1025.69 1025.55 1025.24 1024.79 1024.28 1023.76 1023.29 1022.92 1022.67 1022.52
1009.67 1009.94 1010.21 1010.48 1010.77 1011.09 1011.46 1011.91 1012.44 1013.04 1013.70 1014.39 1015.08 1015.76 1016.40 1017.00 1017.55 1018.07 1018.57 1019.05 1019.53 1020.02 1020.54 1021.10 1021.69 1022.34 1023.04 1023.78 1024.52 1025.23 1025.86 1026.36 1026.69 1026.81 1026.73 1026.45 1026.03 1025.53 1025.01 1024.53 1024.14 1023.85 1023.66
1009.40 1009.77 1010.13 1010.47 1010.80 1011.16 1011.54 1011.98 1012.48 1013.03 1013.64 1014.27 1014.91 1015.55 1016.18 1016.79 1017.37 1017.94 1018.51 1019.07 1019.63 1020.21 1020.80 1021.43 1022.10 1022.81 1023.57 1024.37 1025.17 1025.95 1026.65 1027.23 1027.64 1027.84 1027.83 1027.62 1027.26 1026.80 1026.31 1025.84 1025.44 1025.14 1024.91
1009.13 1009.59 1010.04 1010.47 1010.88 1011.29 1011.72 1012.17 1012.66 1013.18 1013.73 1014.31 1014.89 1015.48 1016.07 1016.67 1017.27 1017.87 1018.49 1019.12 1019.76 1020.40 1021.07 1021.75 1022.46 1023.21 1024.00 1024.82 1025.66 1026.48 1027.25 1027.90 1028.39 1028.69 1028.78 1028.68 1028.42 1028.04 1027.61 1027.18 1026.80 1026.48 1026.22
1008.84 1009.38 1009.91 1010.43 1010.93 1011.42 1011.91 1012.41 1012.92 1013.44 1013.97 1014.50 1015.03 1015.57 1016.12 1016.68 1017.27 1017.89 1018.54 1019.21 1019.90 1020.60 1021.30 1022.01 1022.73 1023.48 1024.27 1025.09 1025.93 1026.77 1027.57 1028.29 1028.88 1029.29 1029.52 1029.56 1029.43 1029.18 1028.85 1028.49 1028.14 1027.82 1027.54
1008.53 1009.12 1009.71 1010.30 1010.89 1011.47 1012.05 1012.63 1013.20 1013.76 1014.29 1014.81 1015.31 1015.81 1016.32 1016.85 1017.41 1018.02 1018.68 1019.37 1020.07 1020.78 1021.49 1022.20 1022.90 1023.62 1024.37 1025.15 1025.97 1026.80 1027.63 1028.40 1029.09 1029.63 1030.01 1030.22 1030.27 1030.17 1029.97 1029.71 1029.41 1029.12 1028.84
1008.26 1008.84 1009.45 1010.09 1010.75 1011.42 1012.11 1012.79 1013.45 1014.08 1014.67 1015.21 1015.71 1016.18 1016.66 1017.16 1017.70 1018.28 1018.92 1019.59 1020.29 1020.99 1021.68 1022.35 1023.01 1023.67 1024.34 1025.06 1025.82 1026.63 1027.45 1028.27 1029.05 1029.72 1030.27 1030.66 1030.89 1030.97 1030.92 1030.78 1030.57 1030.32 1030.05
1008.08 1008.63 1009.21 1009.86 1010.55 1011.29 1012.07 1012.85 1013.62 1014.35 1015.02 1015.62 1016.16 1016.65 1017.12 1017.59 1018.11 1018.66 1019.28 1019.93 1020.60 1021.26 1021.91 1022.53 1023.12 1023.69 1024.28 1024.91 1025.59 1026.34 1027.15 1027.99 1028.83 1029.61 1030.31 1030.88 1031.30 1031.57 1031.69 1031.68 1031.56 1031.37 1031.13
1008.09 1008.55 1009.08 1009.68 1010.37 1011.14 1011.98 1012.85 1013.72 1014.56 1015.32 1016.01 1016.61 1017.14 1017.63 1018.12 1018.62 1019.16 1019.75 1020.37 1021.01 1021.64 1022.25 1022.80 1023.32 1023.81 1024.29 1024.82 1025.41 1026.08 1026.83 1027.66 1028.54 1029.40 1030.22 1030.94 1031.53 1031.97 1032.25 1032.38 1032.37 1032.25 1032.05
1008.33 1008.70 1009.13 1009.66 1010.30 1011.05 1011.91 1012.83 1013.77 1014.70 1015.57 1016.34 1017.02 1017.62 1018.16 1018.67 1019.19 1019.74 1020.32 1020.93 1021.55 1022.16 1022.72 1023.23 1023.68 1024.09 1024.48 1024.90 1025.38 1025.96 1026.64 1027.42 1028.29 1029.19 1030.08 1030.91 1031.63 1032.21 1032.63 1032.88 1032.98 1032.95 1032.80
1008.81 1009.09 1009.42 1009.84 1010.40 1011.09 1011.92 1012.85 1013.83 1014.82 1015.76 1016.62 1017.39 1018.07 1018.67 1019.24 1019.79 1020.36 1020.96 1021.58 1022.20 1022.80 1023.34 1023.82 1024.23 1024.58 1024.89 1025.22 1025.60 1026.07 1026.66 1027.37 1028.18 1029.07 1029.99 1030.87 1031.68 1032.35 1032.88 1033.24 1033.43 1033.47 1033.38
Thickness
5686 5685 5683 5683 5683 5682 5682 5682 5681 5681 5680 5680 5679 5679 5679 5679 5679 5679 5679 5679 5679 5679 5679 5678 5677 5677 5677 5676 5676 5675 5675 5674 5674 5674 5674 5674 5674 5674 5674 5674 5673 5673 5674
5683 5681 5679 5679 5678 5678 5678 5677 5676 5676 5676 5675 5675 5675 5675 5675 5675 5675 5675 5675 5675 5675 5675 5674 5673 5673 5672 5672 5671 5670 5670 5670 5670 5670 5670 5669 5669 5669 5669 5669 5669 5669 5669
5679 5677 5675 5674 5674 5673 5673 5673 5672 5671 5671 5671 5670 5670 5670 5670 5670 5670 5670 5670 5670 5670 5670 5669 5669 5668 5668 5667 5666 5666 5665 5665 5665 5665 5665 5665 5665 5664 5665 5664 5664 5664 5665
5675 5673 5671 5670 5669 5669 5668 5668 5667 5666 5666 5666 5666 5666 5666 5665 5665 5665 5665 5665 5665 5666 5666 5665 5664 5664 5663 5662 5662 5661 5661 5661 5661 5661 5661 5660 5660 5660 5660 5660 5659 5660 5660
5671 5669 5667 5666 5665 5664 5663 5663 5662 5662 5661 5661 5661 5660 5660 5660 5660 5660 5661 5661 5661 5661 5661 5660 5659 5659 5658 5657 5657 5656 5656 5656 5657 5657 5657 5656 5655 5655 5655 5654 5654 5654 5655
5667 5664 5662 5661 5660 5659 5658 5658 5657 5657 5656 5656 5655 5655 5655 5655 5654 5655 5655 5656 5656 5656 5655 5655 5654 5653 5653 5652 5652 5652 5652 5652 5652 5652 5652 5651 5650 5650 5650 5649 5649 5649 5649
5661 5659 5657 5655 5654 5654 5653 5652 5652 5652 5651 5651 5650 5649 5649 5649 5648 5649 5650 5650 5650 5650 5649 5649 5649 5648 5647 5647 5647 5647 5647 5647 5647 5647 5647 5646 5645 5645 5644 5644 5644 5644 5644
5654 5653 5651 5649 5649 5648 5647 5647 5647 5646 5645 5645 5644 5643 5643 5642 5642 5643 5643 5644 5644 5644 5644 5643 5642 5642 5642 5641 5641 5642 5642 5642 5642 5642 5641 5640 5640 5640 5640 5639 5639 5639 5639
5648 5646 5644 5643 5642 5642 5641 5641 5640 5640 5639 5638 5637 5636 5636 5636 5636 5637 5637 5638 5638 5638 5638 5637 5637 5636 5636 5636 5636 5636 5636 5637 5636 5636 5635 5635 5635 5635 5634 5634 5633 5633 5633
5640 5639 5637 5636 5636 5635 5635 5634 5634 5633 5632 5631 5630 5629 5629 5630 5630 5631 5631 5632 5632 5632 5632 5631 5631 5631 5630 5630 5630 5630 5631 5630 5630 5629 5629 5629 5629 5629 5629 5628 5628 5628 5627
5632 5631 5631 5630 5629 5629 5628 5628 5627 5626 5625 5624 5623 5623 5623 5623 5624 5624 5625 5625 5626 5625 5625 5625 5625 5625 5624 5624 5624 5625 5624 5624 5623 5623 5623 5623 5623 5623 5623 5622 5622 5622 5621
5622 5623 5623 5623 5622 5622 5622 5621 5620 5619 5618 5617 5617 5617 5617 5618 5618 5618 5618 5619 5619 5618 5619 5618 5619 5619 5618 5618 5618 5618 5618 5617 5617 5616 5616 5616 5616 5616 5616 5615 5615 5615 5615
5615 5615 5616 5615 5615 5614 5614 5614 5613 5612 5611 5611 5610 5611 5611 5612 5612 5612 5611 5611 5611 5611 5611 5612 5612 5612 5612 5612 5612 5611 5611 5610 5609 5609 5608 5609 5609 5609 5609 5609 5609 5608 5608
5607 5608 5608 5608 5607 5607 5607 5607 5606 5605 5605 5604 5604 5604 5605 5606 5606 5605 5605 5605 5605 5605 5604 5605 5605 5605 5605 5605 5605 5604 5603 5603 5602 5601 5601 5601 5601 5602 5602 5601 5601 5601 5601
5600 5601 5601 5601 5600 5599 5599 5598 5599 5598 5598 5597 5598 5598 5599 5600 5599 5599 5599 5599 5598 5598 5598 5598 5598 5598 5598 5598 5598 5597 5596 5595 5594 5594 5593 5593 5593 5593 5594 5594 5594 5594 5593
5593 5593 5593 5593 5592 5592 5591 5590 5590 5590 5590 5590 5591 5591 5592 5592 5593 5592 5592 5591 5591 5591 5591 5591 5591 5590 5590 5590 5589 5589 5588 5587 5586 5586 5586 5585 5585 5585 5585 5585 5585 5585 5585
5585 5585 5585 5585 5584 5583 5583 5582 5582 5582 5582 5582 5583 5583 5584 5584 5585 5585 5584 5584 5583 5583 5583 5583 5583 5582 5582 5581 5580 5580 5579 5579 5578 5578 5578 5577 5577 5576 5576 5576 5576 5576 5576
5576 5577 5577 5576 5575 5575 5575 5575 5575 5574 5574 5574 5574 5575 5575 5576 5576 5576 5576 5575 5575 5575 5575 5575 5574 5574 5573 5572 5571 5571 5570 5570 5570 5569 5569 5569 5568 5568 5567 5567 5567 5567 5567
5568 5568 5568 5567 5566 5566 5567 5567 5566 5566 5565 5565 5566 5566 5566 5567 5568 5567 5566 5566 5566 5566 5566 5566 5565 5564 5563 5562 5562 5561 5561 5561 5561 5561 5560 5560 5559 5559 5558 5558 5558 5558 5557
5559 5559 5559 5558 5557 5557 5558 5558 5557 5557 5556 5556 5557 5557 5557 5558 5558 5558 5557 5557 5557 5557 5557 5557 5556 5555 5554 5553 5553 5551 5551 5551 5551 5551 5551 5551 5550 5549 5549 5549 5548 5548 5547
5549 5549 5549 5548 5548 5548 5547 5547 5547 5546 5547 5547 5548 5548 5548 5549 5549 5549 5548 5547 5547 5547 5547 5547 5545 5544 5543 5543 5542 5540 5541 5542 5542 5542 5542 5541 5540 5540 5539 5538 5537 5537 5537
5538 5538 5539 5538 5538 5539 5538 5538 5537 5537 5537 5539 5538 5538 5538 5539 5539 5538 5538 5538 5537 5536 5536 5536 5536 5535 5534 5533 5532 5531 5530 5530 5532 5533 5532 5532 5531 5531 5529 5528 5527 5527 5526
5528 5527 5529 5529 5529 5529 5529 5529 5529 5529 5529 5528 5528 5528 5528 5529 5529 5528 5528 5527 5527 5527 5526 5526 5526 5526 5524 5523 5523 5522 5521 5521 5520 5521 5522 5521 5521 5520 5519 5517 5516 5516 5515
5518 5518 5518 5518 5518 5518 5519 5519 5519 5520 5520 5519 5518 5517 5518 5518 5518 5518 5517 5517 5517 5516 5516 5515 5515 5515 5515 5513 5512 5512 5512 5511 5509 5508 5509 5510 5509 5508 5507 5507 5505 5504 5503
5508 5507 5508 5508 5508 5509 5509 5509 5510 5510 5510 5509 5508 5507 5507 5507 5506 5506 5506 5506 5506 5505 5505 5504 5504 5504 5503 5502 5501 5501 5500 5500 5500 5498 5497 5497 5496 5496 5495 5494 5493 5493 5492
5497 5497 5497 5498 5498 5499 5499 5499 5499 5499 5499 5498 5497 5496 5496 5495 5494 5494 5494 5494 5495 5494 5494 5493 5493 5492 5491 5490 5490 5489 5488 5488 5487 5486 5486 5485 5484 5484 5483 5483 5482 5481 5479